Retour au catalogue

STARLINK-37935

ActifCommunicationsSSO
NORAD 69562·PAYLOAD·🇺🇸 United States

Lancé Jun 15, 2026 depuis Vandenberg Space Force Base

Loading…

Prochains Passages (prochaines 24 heures)

TLE

FraisSource: CelesTrak SupGP

Époque: Sep 15, 2026, 03:41 UTC

1 69562C 26135S   26258.15395833 -.00058561  00000+0 -18181-2 0  2580
2 69562  97.2834 285.9513 0001069 104.6762 236.2757 15.33464355    10

Suivez STARLINK-37935 en temps réel avec AllMySat

Download on the App Store